Hattiesburg Laurel Regional Airport
KPIB : now visible

Airfield :











YOU CAN JOIN US ON...

 
LOGIN :

Register | Disclaimer

   EN    FR    IT 

 









Legend :    VFR   Marginal VFR   IFR   Intensive IFR   Very Intensive IFR
Visi :
Ceiling :
>= 8 km
>= 3000ft
5 to 8 km
1000 to 3000 ft
1500m to 5 km
500 to 1000 ft
800 to 1500m
200 to 500 ft
< 800m
< 200 ft
Symbols :   Thunderstorms  Fog  Heavy snow  Heavy precipitations  Wind > 20 kt






- Airport Elevation : 298 ft
- IATA code : PIB


KPIB - Hattiesburg Laurel Regional

CURRENT METAR :
  • 260556Z AUTO 35005KT 10SM CLR 16/16 A3003 RMK AO2 SLP168 T01560156 10172 20150 402060139 50001

EXPIRED METARs :
  • 260456Z AUTO 33003KT 6SM BR FEW035 15/15 A3003 RMK AO2 SLP169 T01500150
  • 260356Z AUTO 00000KT 10SM CLR 16/16 A3003 RMK AO2 SLP168 T01610156

TAF KPIB
Valid from the 26 at 06:00 until the 27 at 06:00 UTC


260551Z 2606/2706 00000KT P6SM SCT250
FM260800 00000KT 4SM -DZ BR BKN002
FM261500 04004KT P6SM BKN025
FM262100 08005KT P6SM BKN040
KZHU FIR / North America



MET'MAP, your aeronautical weather chart ! - Copyright ORBIFLY December 2007 - Disclaimer

ORBIFLY MET'MAP TEAM :

Programming & Development : Alexandra Zaïnal
Concept & original design : Baudouin d'Aumeries
Assistance for programming : Marc-Olivier Méhu
Technical & hardware support : Manuel Goepfert

Contact : metmap@orbifly.com




SOURCES & CREDITS :

   NOAA       Earth
Advisory